Location: Unspecified
(58.7730°N, 5.8460°E)
Time: 22:47:22
(UTC+02:00)

CZ-3 Stage 3 - Visible Passes

Search period start: 26 June 2016 00:00
Search period end: 06 July 2016 00:00
Orbit: 444 x 34760 km, 30.4° (Epoch: 24 June)

Date Brightness Start Highest point End Pass type
(mag) Time Alt. Az. Time Alt. Az. Time Alt. Az.
28 Jun 5.4 00:46:20 10° WSW 01:06:12 18° SSW 01:13:06 10° S visible
01 Jul 5.4 00:36:29 10° WSW 00:57:36 18° SSW 01:04:41 10° S visible
04 Jul 5.4 00:26:37 10° WSW 00:49:00 18° SSW 00:56:16 10° S visible
